This is the latest recevied weather packets stored in our database for station/object JE7UPL-13. If no packets are shown the sender has not sent any weather packets the latest 10 day(s).
| Time | Temp. | Humidity | Pressure | Rain* | Wind** | Luminosity | Snow |
|---|---|---|---|---|---|---|---|
| 1777960806 | 19.44° C | 35% | 1011.4 hPa | 0 mm | - | - | - |
| 1777959905 | 19.44° C | 35% | 1011.3 hPa | 0 mm | - | - | - |
| 1777959005 | 20° C | 33% | 1011.2 hPa | 0 mm | - | - | - |
| 1777958105 | 19.44° C | 33% | 1011.4 hPa | 0 mm | - | - | - |
| 1777957206 | 20° C | 32% | 1011.3 hPa | 0 mm | - | - | - |
| 1777956305 | 19.44° C | 31% | 1011.4 hPa | 0 mm | - | - | - |
| 1777955405 | 19.44° C | 32% | 1011.4 hPa | 0 mm | - | - | - |
| 1777954505 | 19.44° C | 31% | 1011.4 hPa | 0 mm | - | - | - |
| 1777953605 | 19.44° C | 31% | 1011.3 hPa | 0 mm | - | - | - |
| 1777952705 | 19.44° C | 32% | 1011.4 hPa | 0 mm | - | - | - |
| 1777951806 | 18.89° C | 33% | 1011.6 hPa | 0 mm | - | - | - |
| 1777950905 | 18.89° C | 34% | 1011.3 hPa | 0 mm | - | - | - |
| 1777950006 | 18.89° C | 39% | 1011.2 hPa | 0 mm | - | - | - |
| 1777949105 | 17.78° C | 38% | 1011.4 hPa | 0 mm | - | - | - |
| 1777948206 | 18.33° C | 38% | 1011.7 hPa | 0 mm | - | - | - |
| 1777947305 | 17.78° C | 39% | 1011.8 hPa | 0 mm | - | - | - |
| 1777946406 | 17.22° C | 41% | 1011.9 hPa | 0 mm | - | - | - |
| 1777945505 | 16.67° C | 45% | 1011.8 hPa | 0 mm | - | - | - |
| 1777944605 | 16.11° C | 50% | 1012.6 hPa | 0 mm | - | - | - |
| 1777943705 | 15° C | 50% | 1012.6 hPa | 0 mm | - | - | - |
| 1777942806 | 15° C | 50% | 1012.9 hPa | 0 mm | - | - | - |
| 1777941905 | 13.89° C | 51% | 1012.8 hPa | 0 mm | - | - | - |
| 1777941005 | 13.33° C | 52% | 1013.3 hPa | 0 mm | - | - | - |
| 1777940105 | 13.89° C | 52% | 1013 hPa | 0 mm | - | - | - |
| 1777939206 | 12.78° C | 53% | 1013.3 hPa | 0 mm | - | - | - |
* Rain latest hour (hover to see other rain measurements)
** Current wind speed in m/s (hover to see current wind gust speed)